Location: Austin
(30.3000°N, 97.7500°W)
Time: 06:49:13
(UTC-05:00)

ATLAS 3B R/B - Pass Details

Date: 16 June 2025
Orbit: 935 x 1258 km, 63.8° (Epoch: 07 July)

Event Time Altitude Azimuth Distance (km) Brightness Sun altitude
Rises 04:09:56 0° 322° (NW) 4,190 6.0 -24.3°
Reaches altitude 10° 04:12:57 10° 315° (NW) 3,198 5.2 -23.9°
Maximum altitude 04:19:58 40° 250° (WSW) 1,693 3.3 -22.9°
Enters shadow 04:20:34 39° 239° (WSW) 1,702 3.2 -22.8°
